DLH4ZR EDDH-LIMC

Flight info

Callsign DLH4ZR
Flight time 1h 26m
Altitude 37000
Route IDEKO8C IDEKO N850 XAROL/N0454F380 DCT BOMBI DCT GIGET DCT ABUKA DCT KRH DCT NATOR/N0454F390 DCT DITON DCT BASGO/N0444F290 Z424 AKASU/N0378F190 Z424 RIXUV RIXUV3E
Aircraft A320/M-SDE3FGHIRWY/LB1

Departure

Time 2026-05-07 14:12
Airport Hamburg Helmut Schmidt Airport (EDDH)

Arrival

Time 2026-05-07 15:39
Airport Milan Malpensa International Airport (LIMC)
Time Latitude Longitude Altitude Speed Heading
2026-05-07 13:21 53.63374 10.00339 51 ft 0 kts 86°
2026-05-07 13:25 53.63374 10.00340 51 ft 2 kts 86°
2026-05-07 13:26 53.63375 10.00360 48 ft 0 kts 86°
2026-05-07 13:54 53.63373 10.00329 47 ft 4 kts 86°
2026-05-07 13:54 53.63371 10.00284 45 ft 4 kts 86°
2026-05-07 13:54 53.63370 10.00248 45 ft 4 kts 90°
2026-05-07 13:55 53.63372 10.00203 46 ft 4 kts 108°
2026-05-07 13:55 53.63385 10.00166 50 ft 4 kts 150°
2026-05-07 13:55 53.63395 10.00159 49 ft 0 kts 174°
2026-05-07 13:59 53.63394 10.00159 49 ft 1 kts 174°
2026-05-07 13:59 53.63347 10.00165 49 ft 11 kts 176°
2026-05-07 13:59 53.63248 10.00176 51 ft 18 kts 176°
2026-05-07 14:00 53.63134 10.00192 51 ft 11 kts 174°
2026-05-07 14:00 53.63062 10.00174 48 ft 10 kts 209°
2026-05-07 14:00 53.63006 10.00115 48 ft 9 kts 212°
2026-05-07 14:00 53.62962 10.00068 51 ft 5 kts 212°
2026-05-07 14:01 53.62935 10.00040 50 ft 4 kts 208°
2026-05-07 14:01 53.62891 10.00039 50 ft 8 kts 180°
2026-05-07 14:01 53.62845 10.00003 48 ft 7 kts 210°
2026-05-07 14:01 53.62832 9.99990 50 ft 0 kts 211°
2026-05-07 14:03 53.62828 9.99986 50 ft 0 kts 211°
2026-05-07 14:04 53.62827 9.99986 50 ft 0 kts 211°
2026-05-07 14:05 53.62824 9.99982 50 ft 3 kts 211°
2026-05-07 14:06 53.62782 9.99939 50 ft 9 kts 211°
2026-05-07 14:06 53.62723 9.99891 49 ft 10 kts 206°
2026-05-07 14:06 53.62667 9.99834 48 ft 9 kts 222°
2026-05-07 14:06 53.62640 9.99758 50 ft 7 kts 251°
2026-05-07 14:07 53.62631 9.99692 50 ft 5 kts 258°
2026-05-07 14:07 53.62625 9.99637 50 ft 4 kts 258°
2026-05-07 14:07 53.62620 9.99593 49 ft 4 kts 259°
2026-05-07 14:07 53.62616 9.99556 50 ft 3 kts 259°
2026-05-07 14:08 53.62612 9.99524 50 ft 4 kts 259°
2026-05-07 14:08 53.62605 9.99464 47 ft 7 kts 260°
2026-05-07 14:08 53.62596 9.99372 51 ft 9 kts 260°
2026-05-07 14:08 53.62582 9.99250 51 ft 12 kts 259°
2026-05-07 14:09 53.62570 9.99145 51 ft 11 kts 258°
2026-05-07 14:09 53.62547 9.98946 49 ft 23 kts 259°
2026-05-07 14:09 53.62511 9.98636 51 ft 30 kts 259°
2026-05-07 14:09 53.62472 9.98290 51 ft 20 kts 258°
2026-05-07 14:10 53.62426 9.98097 50 ft 17 kts 239°
2026-05-07 14:10 53.62356 9.97941 50 ft 18 kts 229°
2026-05-07 14:10 53.62266 9.97759 50 ft 21 kts 230°
2026-05-07 14:10 53.62190 9.97602 51 ft 13 kts 236°
2026-05-07 14:11 53.62189 9.97461 50 ft 12 kts 294°
2026-05-07 14:11 53.62252 9.97371 49 ft 12 kts 336°
2026-05-07 14:11 53.62325 9.97392 46 ft 12 kts 30°
2026-05-07 14:11 53.62393 9.97519 47 ft 17 kts 51°
2026-05-07 14:12 53.62597 9.97937 48 ft 83 kts 50°
2026-05-07 14:12 53.63097 9.98955 52 ft 140 kts 52°
2026-05-07 14:12 53.63772 10.00374 372 ft 167 kts 51°
2026-05-07 14:12 53.64538 10.01966 949 ft 183 kts 50°
2026-05-07 14:13 53.65389 10.03735 1622 ft 199 kts 51°
2026-05-07 14:13 53.66274 10.05506 2585 ft 201 kts 51°
2026-05-07 14:13 53.67185 10.07335 3536 ft 206 kts 51°
2026-05-07 14:13 53.68115 10.09187 4463 ft 209 kts 48°
2026-05-07 14:14 53.69360 10.10475 5344 ft 217 kts 15°
2026-05-07 14:14 53.70879 10.10360 6195 ft 230 kts 343°
2026-05-07 14:14 53.72218 10.08627 6631 ft 262 kts 307°
2026-05-07 14:14 53.73182 10.05888 7286 ft 277 kts 299°
2026-05-07 14:15 53.74049 10.02943 8218 ft 282 kts 295°
2026-05-07 14:15 53.74587 9.99735 9197 ft 287 kts 277°
2026-05-07 14:15 53.74609 9.96357 10161 ft 290 kts 263°
2026-05-07 14:15 53.74155 9.92952 10649 ft 310 kts 249°
2026-05-07 14:16 53.73289 9.89462 10943 ft 334 kts 247°
2026-05-07 14:16 53.72353 9.85780 11523 ft 345 kts 246°
2026-05-07 14:16 53.71398 9.82028 12289 ft 350 kts 247°
2026-05-07 14:16 53.70433 9.78228 13100 ft 354 kts 247°
2026-05-07 14:17 53.69458 9.74397 13915 ft 358 kts 247°
2026-05-07 14:17 53.68470 9.70513 14637 ft 361 kts 247°
2026-05-07 14:17 53.67441 9.66634 15350 ft 365 kts 242°
2026-05-07 14:17 53.66003 9.63090 16050 ft 369 kts 229°
2026-05-07 14:18 53.64105 9.60167 16755 ft 373 kts 216°
2026-05-07 14:18 53.61837 9.58020 17443 ft 378 kts 203°
2026-05-07 14:18 53.59302 9.56779 18119 ft 383 kts 190°
2026-05-07 14:18 53.56644 9.56218 18726 ft 386 kts 187°
2026-05-07 14:19 53.53958 9.55693 19314 ft 389 kts 187°
2026-05-07 14:19 53.51265 9.55170 19912 ft 391 kts 188°
2026-05-07 14:19 53.48548 9.54644 20518 ft 394 kts 188°
2026-05-07 14:19 53.45823 9.54114 21105 ft 396 kts 188°
2026-05-07 14:20 53.43999 9.53757 21477 ft 398 kts 188°
2026-05-07 14:20 53.41248 9.53215 22036 ft 401 kts 188°
2026-05-07 14:20 53.38465 9.52665 22594 ft 403 kts 188°
2026-05-07 14:20 53.35672 9.52113 23141 ft 406 kts 188°
2026-05-07 14:21 53.32861 9.51556 23671 ft 409 kts 188°
2026-05-07 14:21 53.30020 9.50999 24104 ft 412 kts 188°
2026-05-07 14:21 53.27173 9.50447 24534 ft 414 kts 188°
2026-05-07 14:21 53.24293 9.49885 24956 ft 417 kts 188°
2026-05-07 14:22 53.20419 9.49130 25502 ft 420 kts 188°
2026-05-07 14:22 53.18498 9.48756 25768 ft 422 kts 188°
2026-05-07 14:22 53.15573 9.48184 26171 ft 425 kts 188°
2026-05-07 14:22 53.12626 9.47605 26572 ft 427 kts 188°
2026-05-07 14:23 53.09664 9.47024 26970 ft 430 kts 188°
2026-05-07 14:23 53.06677 9.46444 27370 ft 433 kts 187°
2026-05-07 14:23 53.03686 9.45871 27747 ft 435 kts 187°
2026-05-07 14:23 53.00752 9.45308 28114 ft 438 kts 187°
2026-05-07 14:24 52.97647 9.44705 28474 ft 441 kts 187°
2026-05-07 14:24 52.94600 9.44076 28821 ft 443 kts 188°
2026-05-07 14:24 52.91538 9.43413 29157 ft 446 kts 188°
2026-05-07 14:24 52.88449 9.42736 29489 ft 448 kts 188°
2026-05-07 14:25 52.85353 9.42057 29809 ft 451 kts 188°
2026-05-07 14:25 52.82227 9.41379 30137 ft 453 kts 188°
2026-05-07 14:25 52.79096 9.40706 30433 ft 455 kts 188°
2026-05-07 14:25 52.75963 9.40040 30811 ft 454 kts 188°
2026-05-07 14:26 52.72821 9.39377 31171 ft 454 kts 187°
2026-05-07 14:26 52.69689 9.38715 31537 ft 454 kts 187°
2026-05-07 14:26 52.66559 9.38055 31894 ft 454 kts 187°
2026-05-07 14:26 52.63869 9.37488 32198 ft 455 kts 187°
2026-05-07 14:27 52.60728 9.36806 32573 ft 454 kts 188°
2026-05-07 14:27 52.57607 9.36041 32927 ft 455 kts 189°
2026-05-07 14:27 52.54480 9.35208 33298 ft 455 kts 189°
2026-05-07 14:27 52.51361 9.34345 33667 ft 455 kts 189°
2026-05-07 14:28 52.48243 9.33478 34035 ft 455 kts 189°
2026-05-07 14:28 52.45130 9.32625 34366 ft 455 kts 189°
2026-05-07 14:28 52.41998 9.31787 34704 ft 454 kts 189°
2026-05-07 14:28 52.38889 9.30979 35046 ft 453 kts 189°
2026-05-07 14:29 52.35781 9.30183 35388 ft 451 kts 189°
2026-05-07 14:29 52.32686 9.29390 35722 ft 450 kts 189°
2026-05-07 14:29 52.29590 9.28588 36047 ft 449 kts 189°
2026-05-07 14:29 52.26515 9.27785 36362 ft 447 kts 189°
2026-05-07 14:30 52.23445 9.26980 36666 ft 446 kts 189°
2026-05-07 14:30 52.20371 9.26259 36953 ft 446 kts 188°
2026-05-07 14:30 52.19262 9.26030 37018 ft 447 kts 187°
2026-05-07 14:31 52.13382 9.25036 37085 ft 446 kts 186°
2026-05-07 14:31 52.07209 9.24039 37081 ft 446 kts 187°
2026-05-07 14:32 52.01052 9.22794 37080 ft 446 kts 189°
2026-05-07 14:32 51.94941 9.21120 37077 ft 446 kts 191°
2026-05-07 14:33 51.88835 9.19392 37078 ft 446 kts 190°
2026-05-07 14:33 51.82700 9.17891 37074 ft 446 kts 188°
2026-05-07 14:34 51.76540 9.16629 37080 ft 446 kts 188°
2026-05-07 14:34 51.70376 9.15379 37068 ft 446 kts 188°
2026-05-07 14:35 51.64238 9.14057 37067 ft 446 kts 188°
2026-05-07 14:35 51.58083 9.12706 37060 ft 447 kts 188°
2026-05-07 14:36 51.51914 9.11379 37069 ft 447 kts 188°
2026-05-07 14:36 51.45782 9.09738 37066 ft 447 kts 192°
2026-05-07 14:37 51.39719 9.07562 37062 ft 446 kts 194°
2026-05-07 14:37 51.30624 9.04307 37056 ft 447 kts 192°
2026-05-07 14:38 51.24476 9.02867 37059 ft 448 kts 187°
2026-05-07 14:38 51.18271 9.01834 37055 ft 448 kts 187°
2026-05-07 14:39 51.12527 9.00836 37058 ft 448 kts 188°
2026-05-07 14:39 51.06335 8.99619 37064 ft 448 kts 188°
2026-05-07 14:40 51.00137 8.98360 37055 ft 449 kts 188°
2026-05-07 14:40 50.93951 8.97129 37060 ft 449 kts 188°
2026-05-07 14:41 50.87743 8.95912 37054 ft 449 kts 188°
2026-05-07 14:41 50.81536 8.94687 37063 ft 449 kts 188°
2026-05-07 14:42 50.75342 8.93470 37053 ft 449 kts 188°
2026-05-07 14:42 50.69138 8.92259 37060 ft 449 kts 188°
2026-05-07 14:43 50.62945 8.91050 37055 ft 449 kts 188°
2026-05-07 14:43 50.56773 8.89849 37056 ft 449 kts 188°
2026-05-07 14:44 50.50568 8.88651 37055 ft 449 kts 188°
2026-05-07 14:44 50.44364 8.87452 37055 ft 449 kts 188°
2026-05-07 14:45 50.38166 8.86248 37059 ft 449 kts 188°
2026-05-07 14:45 50.33930 8.85432 37053 ft 449 kts 188°
2026-05-07 14:46 50.27981 8.84283 37058 ft 449 kts 188°
2026-05-07 14:46 50.21770 8.83097 37056 ft 449 kts 188°
2026-05-07 14:47 50.15567 8.81926 37058 ft 449 kts 188°
2026-05-07 14:47 50.09356 8.80748 37056 ft 449 kts 188°
2026-05-07 14:48 50.03155 8.79546 37057 ft 449 kts 189°
2026-05-07 14:48 49.96973 8.78260 37057 ft 449 kts 189°
2026-05-07 14:49 49.90777 8.76951 37057 ft 449 kts 189°
2026-05-07 14:49 49.84587 8.75654 37057 ft 449 kts 189°
2026-05-07 14:50 49.78399 8.74373 37056 ft 449 kts 189°
2026-05-07 14:50 49.72214 8.73103 37053 ft 448 kts 189°
2026-05-07 14:51 49.66023 8.71840 37052 ft 449 kts 189°
2026-05-07 14:51 49.59842 8.70586 37054 ft 449 kts 189°
2026-05-07 14:52 49.53648 8.69342 37056 ft 449 kts 189°
2026-05-07 14:52 49.47457 8.68106 37056 ft 449 kts 189°
2026-05-07 14:53 49.41264 8.66866 37056 ft 449 kts 189°
2026-05-07 14:53 49.35071 8.65602 37055 ft 448 kts 189°
2026-05-07 14:54 49.28891 8.64351 37052 ft 449 kts 189°
2026-05-07 14:54 49.22693 8.63111 37053 ft 448 kts 189°
2026-05-07 14:55 49.16510 8.61867 37049 ft 448 kts 189°
2026-05-07 14:55 49.10745 8.60707 37042 ft 448 kts 189°
2026-05-07 14:56 49.04541 8.59467 37047 ft 448 kts 189°
2026-05-07 14:56 48.98366 8.58211 37048 ft 448 kts 191°
2026-05-07 14:57 48.92256 8.56416 37049 ft 447 kts 194°
2026-05-07 14:57 48.86240 8.54295 37044 ft 446 kts 195°
2026-05-07 14:58 48.80184 8.52209 37049 ft 446 kts 194°
2026-05-07 14:58 48.74113 8.50246 37047 ft 446 kts 194°
2026-05-07 14:59 48.68030 8.48325 37044 ft 446 kts 194°
2026-05-07 14:59 48.61980 8.46398 37040 ft 446 kts 194°
2026-05-07 15:00 48.55917 8.44462 37036 ft 446 kts 194°
2026-05-07 15:00 48.49858 8.42519 37040 ft 445 kts 194°
2026-05-07 15:01 48.43781 8.40584 37044 ft 446 kts 194°
2026-05-07 15:01 48.37711 8.38670 37044 ft 446 kts 194°
2026-05-07 15:02 48.31645 8.36754 37042 ft 445 kts 194°
2026-05-07 15:02 48.25588 8.34836 37039 ft 445 kts 194°
2026-05-07 15:03 48.19526 8.32921 37038 ft 445 kts 194°
2026-05-07 15:03 48.13348 8.32163 37041 ft 449 kts 182°
2026-05-07 15:04 48.08160 8.32248 37039 ft 448 kts 182°
2026-05-07 15:04 48.01916 8.32341 37016 ft 448 kts 182°
2026-05-07 15:05 47.95683 8.32434 37033 ft 448 kts 182°
2026-05-07 15:05 47.89450 8.32527 37040 ft 448 kts 182°
2026-05-07 15:06 47.83221 8.32610 37030 ft 448 kts 182°
2026-05-07 15:06 47.77000 8.32690 37020 ft 447 kts 183°
2026-05-07 15:07 47.71149 8.32764 37024 ft 448 kts 183°
2026-05-07 15:07 47.64982 8.32848 37024 ft 448 kts 183°
2026-05-07 15:08 47.58757 8.32938 37025 ft 448 kts 183°
2026-05-07 15:08 47.52523 8.33031 37028 ft 448 kts 183°
2026-05-07 15:09 47.46296 8.33115 37026 ft 448 kts 183°
2026-05-07 15:09 47.40072 8.33204 37027 ft 448 kts 183°
2026-05-07 15:10 47.33849 8.33285 37024 ft 447 kts 183°
2026-05-07 15:10 47.27613 8.33498 37026 ft 449 kts 180°
2026-05-07 15:11 47.21392 8.34322 37028 ft 450 kts 178°
2026-05-07 15:11 47.15158 8.35369 37028 ft 450 kts 178°
2026-05-07 15:12 47.08929 8.36316 37029 ft 450 kts 179°
2026-05-07 15:12 47.02700 8.37136 37027 ft 450 kts 179°
2026-05-07 15:13 46.96508 8.37938 37028 ft 450 kts 179°
2026-05-07 15:13 46.90285 8.38778 37019 ft 449 kts 179°
2026-05-07 15:14 46.84016 8.39632 37026 ft 449 kts 179°
2026-05-07 15:14 46.77805 8.40473 37025 ft 449 kts 179°
2026-05-07 15:15 46.74767 8.40837 37013 ft 447 kts 180°
2026-05-07 15:15 46.68563 8.41615 37009 ft 448 kts 179°
2026-05-07 15:16 46.62405 8.42519 36915 ft 446 kts 179°
2026-05-07 15:16 46.59320 8.42963 36123 ft 446 kts 179°
2026-05-07 15:16 46.56202 8.43393 35021 ft 455 kts 180°
2026-05-07 15:17 46.53036 8.43811 34007 ft 462 kts 180°
2026-05-07 15:17 46.49816 8.44229 32966 ft 465 kts 180°
2026-05-07 15:17 46.46590 8.44649 31951 ft 467 kts 180°
2026-05-07 15:17 46.43346 8.45078 30942 ft 470 kts 180°
2026-05-07 15:18 46.40072 8.45515 29929 ft 473 kts 179°
2026-05-07 15:18 46.36807 8.45954 28946 ft 472 kts 179°
2026-05-07 15:18 46.33533 8.46397 27945 ft 470 kts 179°
2026-05-07 15:18 46.30297 8.46833 27078 ft 465 kts 178°
2026-05-07 15:19 46.27093 8.47264 26256 ft 460 kts 178°
2026-05-07 15:19 46.23923 8.47698 25459 ft 454 kts 178°
2026-05-07 15:19 46.20799 8.48141 24684 ft 449 kts 177°
2026-05-07 15:19 46.17702 8.48590 23938 ft 444 kts 176°
2026-05-07 15:20 46.14640 8.49035 23209 ft 440 kts 176°
2026-05-07 15:20 46.11627 8.49559 22438 ft 436 kts 171°
2026-05-07 15:20 46.08714 8.50761 21691 ft 434 kts 161°
2026-05-07 15:20 46.05897 8.52291 20950 ft 431 kts 161°
2026-05-07 15:21 46.03100 8.53809 20272 ft 427 kts 161°
2026-05-07 15:21 46.00340 8.55300 19773 ft 419 kts 161°
2026-05-07 15:21 45.97669 8.56742 19650 ft 401 kts 161°
2026-05-07 15:21 45.95243 8.58052 19532 ft 387 kts 161°
2026-05-07 15:22 45.92804 8.59364 19405 ft 374 kts 162°
2026-05-07 15:22 45.90433 8.60711 19289 ft 362 kts 156°
2026-05-07 15:22 45.88336 8.62619 19151 ft 353 kts 143°
2026-05-07 15:22 45.86444 8.64809 18873 ft 347 kts 143°
2026-05-07 15:23 45.84572 8.66981 18529 ft 344 kts 143°
2026-05-07 15:23 45.82714 8.69137 18145 ft 343 kts 143°
2026-05-07 15:23 45.80857 8.71283 17603 ft 344 kts 143°
2026-05-07 15:23 45.78986 8.73442 17066 ft 346 kts 143°
2026-05-07 15:24 45.77109 8.75606 16540 ft 347 kts 144°
2026-05-07 15:24 45.75079 8.77451 16009 ft 346 kts 154°
2026-05-07 15:24 45.72952 8.79090 15524 ft 347 kts 154°
2026-05-07 15:24 45.70835 8.80721 14957 ft 342 kts 154°
2026-05-07 15:25 45.68763 8.82316 14361 ft 335 kts 154°
2026-05-07 15:25 45.66723 8.83884 13616 ft 332 kts 154°
2026-05-07 15:25 45.64691 8.85443 12754 ft 331 kts 153°
2026-05-07 15:25 45.62670 8.86987 11928 ft 328 kts 155°
2026-05-07 15:26 45.60551 8.88012 11395 ft 314 kts 171°
2026-05-07 15:26 45.58459 8.88573 11044 ft 298 kts 171°
2026-05-07 15:26 45.56469 8.89120 10701 ft 286 kts 171°
2026-05-07 15:26 45.54551 8.89647 10361 ft 275 kts 171°
2026-05-07 15:27 45.52690 8.90156 10027 ft 271 kts 171°
2026-05-07 15:27 45.50838 8.90660 9672 ft 271 kts 171°
2026-05-07 15:27 45.48984 8.91162 9294 ft 271 kts 170°
2026-05-07 15:27 45.47139 8.91663 8923 ft 267 kts 170°
2026-05-07 15:28 45.45351 8.92151 8563 ft 257 kts 170°
2026-05-07 15:28 45.43619 8.92626 8202 ft 252 kts 170°
2026-05-07 15:28 45.41907 8.93091 7860 ft 249 kts 170°
2026-05-07 15:28 45.40214 8.93551 7510 ft 247 kts 170°
2026-05-07 15:29 45.38531 8.94010 7161 ft 246 kts 170°
2026-05-07 15:29 45.36850 8.94466 6818 ft 246 kts 170°
2026-05-07 15:29 45.35166 8.94924 6478 ft 246 kts 170°
2026-05-07 15:29 45.33490 8.95378 6126 ft 245 kts 170°
2026-05-07 15:30 45.31830 8.95826 5988 ft 239 kts 170°
2026-05-07 15:30 45.30199 8.96219 5981 ft 234 kts 178°
2026-05-07 15:30 45.28655 8.95894 5978 ft 219 kts 203°
2026-05-07 15:30 45.27396 8.94728 5969 ft 217 kts 227°
2026-05-07 15:31 45.26607 8.92925 5972 ft 216 kts 252°
2026-05-07 15:31 45.26424 8.90820 5971 ft 217 kts 276°
2026-05-07 15:31 45.26885 8.88799 5985 ft 218 kts 301°
2026-05-07 15:31 45.27905 8.87218 5994 ft 220 kts 325°
2026-05-07 15:32 45.29232 8.86134 5991 ft 221 kts 330°
2026-05-07 15:32 45.30575 8.85072 5992 ft 221 kts 330°
2026-05-07 15:32 45.31901 8.84022 5996 ft 221 kts 330°
2026-05-07 15:32 45.33243 8.82956 5997 ft 221 kts 330°
2026-05-07 15:33 45.34602 8.81873 5998 ft 221 kts 330°
2026-05-07 15:33 45.35995 8.80923 5785 ft 223 kts 341°
2026-05-07 15:33 45.37489 8.80369 5503 ft 222 kts 348°
2026-05-07 15:33 45.38986 8.79952 5212 ft 222 kts 349°
2026-05-07 15:34 45.40503 8.79541 4923 ft 223 kts 349°
2026-05-07 15:34 45.42034 8.79123 4628 ft 225 kts 349°
2026-05-07 15:34 45.43576 8.78701 4294 ft 227 kts 349°
2026-05-07 15:34 45.45124 8.78276 4003 ft 223 kts 349°
2026-05-07 15:35 45.46597 8.77872 3701 ft 207 kts 349°
2026-05-07 15:35 45.47967 8.77496 3429 ft 194 kts 349°
2026-05-07 15:35 45.49257 8.77142 3186 ft 184 kts 349°
2026-05-07 15:35 45.50486 8.76804 2946 ft 176 kts 349°
2026-05-07 15:36 45.51684 8.76475 2714 ft 175 kts 349°
2026-05-07 15:36 45.52872 8.76148 2484 ft 173 kts 349°
2026-05-07 15:36 45.54042 8.75826 2249 ft 170 kts 349°
2026-05-07 15:36 45.55180 8.75513 2032 ft 163 kts 349°
2026-05-07 15:37 45.56252 8.75218 1819 ft 156 kts 349°
2026-05-07 15:37 45.57289 8.74932 1619 ft 149 kts 349°
2026-05-07 15:37 45.58295 8.74653 1412 ft 146 kts 348°
2026-05-07 15:37 45.59294 8.74369 1227 ft 146 kts 349°
2026-05-07 15:38 45.60290 8.74108 1027 ft 145 kts 348°
2026-05-07 15:38 45.61285 8.73830 828 ft 145 kts 348°
2026-05-07 15:38 45.62265 8.73555 740 ft 138 kts 349°
2026-05-07 15:38 45.63052 8.73341 735 ft 91 kts 349°
2026-05-07 15:39 45.63480 8.73221 739 ft 36 kts 349°
2026-05-07 15:39 45.63705 8.73086 739 ft 35 kts 324°
2026-05-07 15:39 45.63812 8.72920 736 ft 12 kts 303°
2026-05-07 15:39 45.63857 8.72824 736 ft 11 kts 304°
2026-05-07 15:40 45.63898 8.72737 736 ft 10 kts 304°
2026-05-07 15:40 45.63927 8.72654 736 ft 9 kts 276°
2026-05-07 15:40 45.63897 8.72593 736 ft 7 kts 201°
2026-05-07 15:40 45.63853 8.72596 735 ft 6 kts 173°
2026-05-07 15:41 45.63807 8.72606 735 ft 9 kts 169°
2026-05-07 15:41 45.63734 8.72627 736 ft 12 kts 169°
2026-05-07 15:41 45.63646 8.72650 736 ft 14 kts 169°
2026-05-07 15:41 45.63540 8.72679 736 ft 17 kts 169°
2026-05-07 15:42 45.63424 8.72697 736 ft 17 kts 192°
2026-05-07 15:42 45.63317 8.72603 735 ft 19 kts 214°
2026-05-07 15:42 45.63199 8.72489 737 ft 22 kts 214°
2026-05-07 15:42 45.63077 8.72370 740 ft 19 kts 217°
2026-05-07 15:43 45.63024 8.72190 739 ft 22 kts 259°
2026-05-07 15:43 45.62998 8.71996 735 ft 15 kts 259°
2026-05-07 15:43 45.62977 8.71840 736 ft 17 kts 259°
2026-05-07 15:43 45.62952 8.71660 736 ft 20 kts 259°
2026-05-07 15:44 45.62937 8.71545 736 ft 9 kts 259°
2026-05-07 15:44 45.62951 8.71489 736 ft 6 kts 327°
2026-05-07 15:44 45.62987 8.71480 736 ft 5 kts 350°
2026-05-07 15:44 45.63014 8.71472 735 ft 0 kts 348°